"Pseudo-MPEC" for P11YHJI

Created 2024 Oct 5 7:22:21 UT using Find_Orb

Click here for an explanation of pseudo-MPECs

 
 Astrometry: 
     P11YHJI* C2024 09 11.60394003 04 51.245-27 30 10.04   ~9P1M 21.97wXNEOCPF51
     P11YHJI* C2024 09 11.60787503 04 51.615-27 30 17.76   ~9P1M 21.52wXNEOCPF51
     P11YHJI  C2024 09 11.60916303 04 51.732-27 30 20.33   ~9P1M 21.70wXNEOCPF51
     P11YHJI  C2024 09 11.61308803 04 52.079-27 30 27.91   ~9P1M 22.06wXNEOCPF51
     P11YHJI  C2024 09 11.61437303 04 52.218-27 30 30.42   ~9P1M 21.82wXNEOCPF51
     P11YHJI  C2024 09 11.61830703 04 52.587-27 30 38.16   ~9P1M 21.98wXNEOCPF51
     P11YHJI  C2024 09 11.61959103 04 52.688-27 30 40.36   ~9P1M 22.11wXNEOCPF51
     P11YHJI  C2024 09 13.59868303 07 59.472-28 34 14.57   ~9P1M 21.42GVNEOCPF51
     P11YHJI  C2024 09 13.59949703 07 59.544-28 34 16.25   ~9P1M 21.50GVNEOCPF51

Station data:
(F51) Pan-STARRS 1, Haleakala  (N20.707234 W156.255910)  US/Hawaii.
   Observers J. Bulger, T. Lowe, A. Schultz, M. Willman. Measurers K.
   Chambers, S. Chastel, T. de Boer, L. Denneau, J. Fairlamb, H. Flewelling,
   M. Huber, C.-C. Lin, E. Magnier, Y. Ramanjooloo, R. Wainscoat, R. Weryk.
   1.8-m Ritchey-Chrétien + CCD.

Orbital elements:  P11YHJI
   Perihelion 2024 Dec 3.43292 +/- 58.7 TT = 10:23:24 (JD 2460647.93292)
Epoch 2024 Sep 13.0 TT = JDT 2460566.5   Earth MOID: 0.7278      AutoNEOCP
M 333.62970841 +/- 21               (J2000 ecliptic)
n   0.32382840 +/- 0.197            Peri.  274.85878 +/- 44
a   2.10019405 +/- 0.852            Node   142.89330 +/- 8
e   0.2911210 +/- 0.225             Incl.   29.02097 +/- 6
P   3.04361                H 19.75  G  0.15   U 11.7  SR
q 1.48878336 +/- 0.221    Q 2.71160473 +/- 9.1
From 9 observations 2024 Sept. 11-13 (47.9 hr); mean residual 0".13
Residuals in arcseconds: 
240911 F51  .16-  .27+    240911 F51  .18-  .03-    240911 F51  .03+  .00     
240911 F51  .02-  .11+    240911 F51  .11+  .08-    240913 F51  .00   .06+    
240911 F51  .03-  .01+    240911 F51  .24+  .27-    240913 F51  .00   .05-    

Ephemerides (geocentric):
Date (UTC) HH   RA             Dec           delta  r     elong  mag " sig PA
---- --------  ------------   ------------  ------ ------ -----  --- --------
2024 10 05 07  03 33 40.881   -39 37 25.46  .78079 1.5536 121.0 21.6 5846  38
2024 10 05 08  03 33 42.770   -39 38 33.34  .78076 1.5535 121.0 21.6 5865  38
2024 10 05 09  03 33 44.655   -39 39 41.17  .78073 1.5535 121.0 21.6 5884  38
2024 10 05 10  03 33 46.536   -39 40 48.96  .78069 1.5534 121.0 21.6 5903  38
2024 10 05 11  03 33 48.411   -39 41 56.69  .78066 1.5533 121.0 21.6 5922  38
2024 10 05 12  03 33 50.283   -39 43 04.37  .78063 1.5532 121.0 21.6 5941  38
2024 10 05 13  03 33 52.149   -39 44 12.01  .78060 1.5531 121.0 21.6 5961  38
2024 10 05 14  03 33 54.011   -39 45 19.59  .78057 1.5530 120.9 21.6 5980  38
2024 10 05 15  03 33 55.868   -39 46 27.12  .78053 1.5529 120.9 21.6 5999  38
2024 10 05 16  03 33 57.721   -39 47 34.60  .78050 1.5529 120.9 21.6 6018  38
2024 10 05 17  03 33 59.569   -39 48 42.03  .78047 1.5528 120.9 21.6 6037  38
2024 10 05 18  03 34 01.413   -39 49 49.41  .78044 1.5527 120.9 21.6 6057  38
2024 10 05 19  03 34 03.252   -39 50 56.74  .78041 1.5526 120.9 21.6 6076  38
2024 10 05 20  03 34 05.086   -39 52 04.02  .78038 1.5525 120.9 21.6 6095  38
2024 10 05 21  03 34 06.916   -39 53 11.24  .78035 1.5524 120.9 21.6 6114  38
2024 10 05 22  03 34 08.741   -39 54 18.42  .78032 1.5523 120.9 21.6 6134  38
2024 10 05 23  03 34 10.561   -39 55 25.54  .78029 1.5522 120.9 21.6 6153  38
2024 10 06 00  03 34 12.377   -39 56 32.61  .78026 1.5522 120.9 21.6 6172  38
2024 10 06 01  03 34 14.189   -39 57 39.63  .78023 1.5521 120.9 21.6 6192  38
2024 10 06 02  03 34 15.995   -39 58 46.60  .78020 1.5520 120.9 21.6 6211  38
2024 10 06 03  03 34 17.797   -39 59 53.52  .78017 1.5519 120.9 21.6 6231  38
2024 10 06 04  03 34 19.595   -40 01 00.38  .78014 1.5518 120.9 21.6 6250  38
2024 10 06 05  03 34 21.387   -40 02 07.20  .78011 1.5517 120.8 21.6 6269  38
2024 10 06 06  03 34 23.176   -40 03 13.96  .78008 1.5516 120.8 21.6 6289  38
2024 10 06 07  03 34 24.959   -40 04 20.67  .78005 1.5516 120.8 21.6 6308  38
2024 10 06 08  03 34 26.738   -40 05 27.33  .78002 1.5515 120.8 21.6 6328  38
2024 10 06 09  03 34 28.512   -40 06 33.93  .77999 1.5514 120.8 21.6 6347  38
2024 10 06 10  03 34 30.282   -40 07 40.48  .77996 1.5513 120.8 21.6 6367  38
2024 10 06 11  03 34 32.047   -40 08 46.98  .77993 1.5512 120.8 21.6 6387  38
2024 10 06 12  03 34 33.807   -40 09 53.43  .77991 1.5511 120.8 21.6 6406  38
2024 10 06 13  03 34 35.563   -40 10 59.83  .77988 1.5510 120.8 21.6 6426  38
2024 10 06 14  03 34 37.314   -40 12 06.17  .77985 1.5510 120.8 21.6 6445  38
2024 10 06 15  03 34 39.061   -40 13 12.46  .77982 1.5509 120.8 21.6 6465  38
2024 10 06 16  03 34 40.802   -40 14 18.70  .77980 1.5508 120.8 21.6 6485  38
2024 10 06 17  03 34 42.540   -40 15 24.88  .77977 1.5507 120.8 21.6 6504  38
2024 10 06 18  03 34 44.272   -40 16 31.02  .77974 1.5506 120.8 21.6 6524  38
2024 10 06 19  03 34 46.000   -40 17 37.09  .77972 1.5505 120.8 21.6 6544  38
2024 10 06 20  03 34 47.723   -40 18 43.12  .77969 1.5504 120.7 21.6 6564  38
2024 10 06 21  03 34 49.442   -40 19 49.09  .77966 1.5504 120.7 21.6 6583  38
2024 10 06 22  03 34 51.156   -40 20 55.01  .77964 1.5503 120.7 21.6 6603  38
2024 10 06 23  03 34 52.865   -40 22 00.88  .77961 1.5502 120.7 21.6 6623  38
2024 10 07 00  03 34 54.570   -40 23 06.69  .77958 1.5501 120.7 21.6 6643  38
2024 10 07 01  03 34 56.270   -40 24 12.45  .77956 1.5500 120.7 21.6 6663  38
2024 10 07 02  03 34 57.965   -40 25 18.15  .77953 1.5499 120.7 21.6 6682  38
2024 10 07 03  03 34 59.656   -40 26 23.80  .77951 1.5498 120.7 21.6 6702  38
2024 10 07 04  03 35 01.342   -40 27 29.40  .77948 1.5498 120.7 21.6 6722  38
2024 10 07 05  03 35 03.024   -40 28 34.94  .77946 1.5497 120.7 21.6 6742  38
2024 10 07 06  03 35 04.701   -40 29 40.43  .77943 1.5496 120.7 21.6 6762  38